Location: Deuil
(48.9767°N, 2.3272°E)
Time: 02:19:55
(UTC+00:00)

Cosmos 2360 Rocket - Pass Details

Date: 26 May 2022
Orbit: 832 x 846 km, 71.0° (Epoch: 03 July)

Event Time Altitude Azimuth Distance (km) Brightness Sun altitude
Exits shadow 23:22:37 19° 227° (SW) 1,893 3.7 -19.5°
Maximum altitude 23:26:38 60° 303° (WNW) 959 2.6 -19.6°
Drops below altitude 10° 23:32:14 10° 23° (NNE) 2,469 5.5 -19.7°
Sets 23:34:45 0° 27° (NNE) 3,410 6.4 -19.7°
